CW4498 Weather Reports


time (UTC)temp
C
wind
direction
speed
KPH
gust
KPH
rain 1hr
cm
rain 24hr
cm
rain mn
cm
humidity
%
barometer
mb
20260905030042 21 125 0.0 3.2 0.00 0.08 0.08 41 1015.8
20260905024548 21 110 0.0 1.6 0.00 0.08 0.08 42 1015.3
20260905023042 22 121 0.0 3.2 0.00 0.08 0.08 41 1015.1
20260905021543 22 257 1.6 3.2 0.00 0.08 0.08 42 1014.9
20260905020040 21 265 0.0 1.6 0.00 0.08 0.08 43 1014.7
20260905014551 21 268 0.0 4.8 0.00 0.08 0.08 46 1014.6
20260905013040 21 275 0.0 1.6 0.08 0.08 0.08 50 1014.5
20260905011538 21 275 0.0 1.6 0.08 0.08 0.08 55 1014.3
20260905010039 20 132 0.0 3.2 0.08 0.08 0.08 59 1014.2
20260905004538 25 262 0.0 8.0 0.08 0.08 0.08 39 1014.4
20260905003037 26 117 0.0 6.4 0.00 0.00 0.00 30 1014.2
20260905001536 26 169 3.2 12.9 0.00 0.00 0.00 29 1014.2
20260905000038 26 108 1.6 8.0 0.00 0.00 0.00 29 1014.1
20260904234536 26 141 3.2 14.5 0.00 0.00 0.00 28 1014.0
20260904233035 26 119 1.6 12.9 0.00 0.00 0.00 28 1013.7
20260904231535 27 125 3.2 12.9 0.00 0.00 0.00 27 1013.7
20260904230034 28 140 8.0 20.9 0.00 0.00 0.00 26 1013.6
20260904224534 28 123 11.3 20.9 0.00 0.00 0.00 26 1013.6
20260904223043 28 109 6.4 17.7 0.00 0.00 0.00 27 1013.7
20260904221544 27 114 8.0 19.3 0.00 0.00 0.00 27 1013.8
20260904220035 27 113 4.8 14.5 0.00 0.00 0.00 27 1013.9
20260904214536 28 127 9.7 16.1 0.00 0.00 0.00 26 1014.0
20260904213031 28 110 8.0 16.1 0.00 0.00 0.00 24 1014.0
20260904211535 28 125 3.2 9.7 0.00 0.00 0.00 23 1014.2
20260904210032 28 123 0.0 6.4 0.00 0.00 0.00 24 1014.4
20260904204529 29 115 3.2 12.9 0.00 0.00 0.00 23 1014.5
20260904203032 30 110 0.0 20.9 0.00 0.00 0.00 22 1014.5
20260904201531 30 142 1.6 6.4 0.00 0.00 0.00 21 1014.7
20260904200027 30 277 3.2 12.9 0.00 0.00 0.00 21 1015.0
20260904194600 30 137 1.6 9.7 0.00 0.00 0.00 23 1015.1
20260904193036 29 220 4.8 11.3 0.00 0.00 0.00 23 1015.1
20260904191523 29 110 6.4 17.7 0.00 0.00 0.00 23 1015.2
20260904190022 28 130 1.6 12.9 0.00 0.00 0.00 24 1015.3
20260904184521 29 128 3.2 11.3 0.00 0.00 0.00 22 1015.5
20260904183019 28 85 0.0 9.7 0.00 0.00 0.00 23 1015.8
20260904181517 27 110 4.8 16.1 0.00 0.00 0.00 24 1015.8
20260904180019 28 227 3.2 12.9 0.00 0.00 0.00 23 1016.1
20260904174517 28 134 3.2 11.3 0.00 0.00 0.00 24 1016.2
20260904173019 28 5 1.6 14.5 0.00 0.00 0.00 24 1016.4
20260904171517 27 94 3.2 17.7 0.00 0.00 0.00 25 1016.3
20260904170011 26 136 3.2 12.9 0.00 0.00 0.00 26 1016.4
20260904164511 26 281 3.2 12.9 0.00 0.00 0.00 26 1016.5
20260904163011 26 234 1.6 14.5 0.00 0.00 0.00 25 1016.5
20260904161510 26 122 3.2 12.9 0.00 0.00 0.00 27 1016.4
20260904160010 26 130 3.2 12.9 0.00 0.00 0.00 27 1016.3
20260904154509 26 126 6.4 12.9 0.00 0.00 0.00 26 1016.3
20260904153020 26 117 0.0 3.2 0.00 0.00 0.00 27 1016.3
20260904151502 26 126 0.0 3.2 0.00 0.00 0.00 28 1016.4
20260904150101 25 108 0.0 1.6 0.00 0.00 0.00 28 1016.4
20260904144557 24 100 0.0 3.2 0.00 0.00 0.00 30 1016.5
20260904143052 22 121 0.0 3.2 0.00 0.00 0.00 32 1016.3
20260904141617 21 109 0.0 3.2 0.00 0.00 0.00 34 1016.3
20260904140104 21 120 4.8 11.3 0.00 0.00 0.00 34 1016.1
20260904134556 22 107 0.0 4.8 0.00 0.00 0.00 31 1015.8
20260904133106 22 267 4.8 14.5 0.00 0.00 0.00 31 1015.5
20260904131555 21 275 6.4 19.3 0.00 0.00 0.00 32 1015.2
20260904130046 21 302 4.8 14.5 0.00 0.00 0.00 32 1015.1
20260904124545 21 294 6.4 17.7 0.00 0.00 0.00 32 1015.0
20260904123045 21 285 8.0 20.9 0.00 0.00 0.00 30 1014.7
20260904121544 21 271 9.7 27.4 0.00 0.00 0.00 30 1014.6
20260904120045 21 215 8.0 24.1 0.00 0.00 0.00 31 1014.4
20260904114541 21 224 1.6 17.7 0.00 0.00 0.00 31 1014.4
20260904113040 20 260 3.2 14.5 0.00 0.00 0.00 31 1014.4
20260904111536 20 142 3.2 11.3 0.00 0.00 0.00 32 1014.3
20260904110033 18 294 3.2 8.0 0.00 0.00 0.00 42 1014.3
20260904104532 18 159 0.0 6.4 0.00 0.00 0.00 46 1014.1
20260904103032 17 276 1.6 4.8 0.00 0.00 0.00 50 1013.9
20260904101531 17 277 1.6 3.2 0.00 0.00 0.00 51 1013.9
20260904100031 16 279 1.6 4.8 0.00 0.00 0.00 51 1013.7
20260904094530 16 272 0.0 4.8 0.00 0.00 0.00 52 1013.6
20260904093030 16 211 0.0 6.4 0.00 0.00 0.00 51 1013.4
20260904091528 16 114 0.0 3.2 0.00 0.00 0.00 53 1013.2
20260904090026 16 271 0.0 3.2 0.00 0.00 0.00 52 1013.3
20260904084526 16 271 0.0 1.6 0.00 0.00 0.00 52 1013.4
20260904083024 16 271 0.0 3.2 0.00 0.00 0.00 52 1013.4
20260904081522 17 271 0.0 3.2 0.00 0.00 0.00 51 1013.4
20260904080025 17 271 0.0 1.6 0.00 0.00 0.00 48 1013.5
20260904074526 17 271 0.0 3.2 0.00 0.00 0.00 48 1013.5
20260904073016 17 271 0.0 1.6 0.00 0.00 0.00 48 1013.6
20260904071515 17 271 0.0 1.6 0.00 0.00 0.00 49 1013.6
20260904070014 17 271 0.0 1.6 0.00 0.00 0.00 48 1013.9
20260904064510 18 271 0.0 3.2 0.00 0.00 0.00 46 1014.0
20260904063014 18 271 0.0 3.2 0.00 0.00 0.00 46 1014.1
20260904061518 18 221 0.0 1.6 0.00 0.00 0.00 45 1014.1
20260904060008 19 221 0.0 1.6 0.00 0.00 0.00 44 1014.3
20260904054509 20 121 0.0 4.8 0.00 0.00 0.00 42 1014.4
20260904053005 20 112 0.0 4.8 0.00 0.00 0.00 41 1014.4
20260904051511 20 273 0.0 6.4 0.00 0.00 0.00 40 1014.7
20260904050002 20 238 0.0 1.6 0.00 0.00 0.00 39 1014.8
20260904044501 20 239 0.0 1.6 0.00 0.00 0.00 37 1014.9
20260904043103 21 167 0.0 3.2 0.00 0.00 0.00 36 1015.0
20260904043003 21 167 0.0 3.2 0.00 0.00 0.00 35 1015.0
20260904041612 21 100 0.0 6.4 0.00 0.00 0.00 33 1015.2
20260904034608 22 93 1.6 4.8 0.00 0.00 0.00 28 1015.1
20260904033100 22 123 0.0 4.8 0.00 0.00 0.00 27 1014.8
20260904031558 22 116 1.6 4.8 0.00 0.00 0.00 26 1014.5